Location: Diebersbach
(48.5163°N, 8.0558°E)
Time: 20:20:27
(UTC+00:00)

USA 229 - Pass Details

Date: 26 October 2021
Orbit: 946 x 1266 km, 63.4° (Epoch: 25 November)

Event Time Altitude Azimuth Distance (km) Brightness Sun altitude
Rises 17:45:49 0° 211° (SSW) 3,632 7.0 -15.1°
Reaches altitude 10° 17:48:18 10° 210° (SSW) 2,712 6.2 -15.5°
Maximum altitude 17:54:37 73° 126° (SE) 1,059 3.5 -16.6°
Enters shadow 18:00:49 13° 44° (NE) 2,696 5.4 -17.6°
